[[{"header":{"parameterUnit":"m.s-1","parameterCategory":1,"la1":30.2991,"la2":30.254,"lo1":-89.0895,"lo2":-89.0444,"dy":0.0017,"dx":0.0017,"nx":28,"ny":28,"refTime":"2023-04-25T21:00:00:Z","depth":0,"parameterNumber":2,"parameterNumberName":"U-component_of_WINDS"},"data":[0,0,0,0,0,0,0,0,0,0,0,0,0,0,0,0,0,0,0,0,0,0,0,0,0,0,0,0,0,0,0,0,0,0,0,0,0,0,0,0,0,0,0,0,0,0,0,0,0,0,0,0,0,0,0,0,0,0,-1.4621,-1.462,0,-1.4562,-1.4561,-1.4561,-1.4469,-1.4467,-1.4465,-1.4464,-1.4404,-1.4404,-1.4404,0,0,0,0,0,0,0,0,0,0,0,0,0,-1.4657,-1.4657,-1.4621,-1.462,-1.462,-1.4562,-1.4561,-1.456,-1.4469,-1.4467,-1.4465,-1.4463,-1.4404,-1.4404,-1.4404,0,0,0,0,0,0,0,0,0,0,0,0,0,-1.4624,-1.4657,-1.4621,-1.4567,-1.4561,-1.4562,-1.4561,-1.456,-1.4469,-1.4467,-1.4464,-1.4462,-1.4404,-1.4404,-1.4404,-1.4454,0,0,-1.4404,-1.4404,0,0,0,0,0,0,0,0,-1.4626,-1.4623,-1.4576,-1.4571,-1.4565,-1.452,-1.4552,-1.4524,-1.447,-1.4504,-1.4464,-1.4461,-1.4445,-1.4441,-1.4436,-1.4451,-1.4448,-1.4404,-1.4404,-1.4404,-1.4404,0,0,0,0,0,0,0,-1.4629,-1.4625,-1.4598,-1.4575,-1.4568,-1.4546,-1.4539,-1.4546,-1.4489,-1.4501,-1.4494,-1.4489,-1.4441,-1.4436,-1.4434,-1.4447,-1.4404,-1.4404,-1.4404,-1.4404,-1.4502,-1.4505,0,0,0,0,0,0,-1.4639,-1.4628,-1.4599,-1.4596,-1.459,-1.4548,-1.454,-1.4537,-1.4489,-1.4479,-1.4491,-1.4485,-1.4437,-1.4434,-1.4431,-1.4487,-1.4404,-1.4404,-1.4404,-1.45,-1.4503,-1.4506,0,0,0,0,0,0,-1.464,-1.4637,-1.4602,-1.461,-1.4604,-1.455,-1.4548,-1.4537,-1.4531,-1.4481,-1.4471,-1.4496,-1.4435,-1.4431,-1.4449,-1.4483,-1.4404,-1.4404,-1.4496,-1.45,-1.4504,-1.4598,0,0,0,0,0,0,-1.4641,-1.4638,-1.4655,-1.4611,-1.4604,-1.462,-1.455,-1.4538,-1.4532,-1.4523,-1.4483,-1.4474,-1.4433,-1.445,-1.4449,-1.4482,-1.4404,-1.4493,-1.4498,-1.4503,-1.4591,-1.4605,-1.4616,0,0,0,0,0,-1.4643,-1.4684,-1.4657,-1.4654,-1.4624,-1.4622,-1.4618,-1.457,-1.4535,-1.4552,-1.452,-1.4475,-1.448,-1.4452,-1.4451,-1.4484,-1.4491,-1.4497,-1.4503,-1.4586,-1.4602,-1.4616,0,0,0,0,0,0,-1.4733,-1.4677,-1.4646,-1.4674,-1.4654,-1.4607,-1.4627,-1.4588,-1.4578,-1.457,-1.4511,-1.4503,-1.4529,-1.4508,-1.4478,-1.4531,-1.4479,-1.4485,-1.4543,-1.4557,-1.4569,-1.4574,-1.4404,0,0,0,0,0,-1.4756,-1.4759,-1.471,-1.4739,-1.473,-1.4681,-1.4678,-1.4643,-1.462,-1.4611,-1.458,-1.456,-1.4557,-1.4556,-1.455,-1.4589,-1.4579,-1.4611,-1.4623,-1.4634,-1.4639,-1.466,-1.4674,-1.4525,-1.4525,-1.4525,0,0,-1.4804,-1.4774,-1.4778,-1.4756,-1.4736,-1.4742,-1.4674,-1.4682,-1.4685,-1.4612,-1.4627,-1.4604,-1.4578,-1.4607,-1.4618,-1.459,-1.4679,-1.4641,-1.465,-1.465,-1.4667,-1.4681,-1.4694,-1.4529,-1.4528,-1.4528,0,0,-1.4893,-1.487,-1.4893,-1.4875,-1.4846,-1.4813,-1.4819,-1.4779,-1.4761,-1.4775,-1.4721,-1.4725,-1.4721,-1.4705,-1.4696,-1.4783,-1.4742,-1.4783,-1.4846,-1.4867,-1.4879,-1.4889,-1.4921,-1.4933,-1.4789,-1.4789,-1.479,0,-1.4956,-1.496,-1.4909,-1.4921,-1.4913,-1.4848,-1.4872,-1.4857,-1.4828,-1.4825,-1.4795,-1.479,-1.4767,-1.4792,-1.4814,-1.4809,-1.4815,-1.4787,-1.4881,-1.4891,-1.4899,-1.4929,-1.4941,-1.4795,-1.4794,-1.4793,-1.4793,0,-1.504,-1.5044,-1.5066,-1.504,-1.5035,-1.5053,-1.5005,-1.5007,-1.4974,-1.4945,-1.4962,-1.4933,-1.4921,-1.4925,-1.4892,-1.4946,-1.493,-1.4892,-1.4838,-1.492,-1.4947,-1.4958,-1.4802,-1.48,-1.4799,-1.4797,0,0,-1.5182,-1.5129,-1.5138,-1.5127,-1.5092,-1.5095,-1.511,-1.5099,-1.5102,-1.5086,-1.5098,-1.5097,-1.5062,-1.5053,-1.5018,-1.5036,-1.5109,-1.4995,-1.4994,-1.5018,-1.5168,-1.5197,-1.5211,-1.5082,-1.5084,-1.5085,-1.5171,0,-1.5264,-1.5287,-1.5242,-1.5276,-1.5281,-1.5221,-1.5235,-1.5216,-1.519,-1.5191,-1.5162,-1.5163,-1.5116,-1.5111,-1.5126,-1.5097,-1.5138,-1.509,-1.5093,-1.5094,-1.5101,-1.5225,-1.5255,-1.5337,-1.5181,-1.5183,-1.5184,0,-1.5362,-1.5351,-1.5386,-1.5351,-1.5351,-1.5364,-1.5351,-1.5353,-1.5331,-1.5311,-1.5302,-1.5262,-1.5276,-1.5226,-1.5245,-1.5214,-1.5213,-1.5199,-1.5201,-1.5199,-1.5144,-1.5227,-1.5362,-1.5374,-1.52,-1.5199,-1.5197,0,-1.5463,-1.5457,-1.5477,-1.5469,-1.5429,-1.544,-1.5424,-1.5399,-1.5396,-1.5386,-1.5383,-1.5375,-1.5371,-1.5366,-1.5325,-1.5292,-1.5351,-1.5296,-1.5335,-1.5337,-1.5349,-1.5349,-1.5486,-1.535,-1.535,-1.5349,-1.5349,0,-1.5559,-1.5583,-1.5522,-1.5535,-1.556,-1.551,-1.5537,-1.5515,-1.5495,-1.5503,-1.5451,-1.546,-1.5405,-1.5409,-1.5377,-1.5399,-1.5398,-1.5383,-1.5374,-1.5387,-1.5389,-1.5385,-1.5379,-1.5352,-1.5352,-1.5351,-1.5351,0,-1.5675,-1.5636,-1.5654,-1.5615,-1.5606,-1.5627,-1.5594,-1.5604,-1.5577,-1.5588,-1.5588,-1.5544,-1.5546,-1.5505,-1.5498,-1.5477,-1.5514,-1.5495,-1.5521,-1.5515,-1.5556,-1.5553,-1.5696,-1.5713,-1.5566,-1.5567,-1.5568,0,-1.5739,-1.5756,-1.5719,-1.5721,-1.5708,-1.5711,-1.5708,-1.5661,-1.566,-1.5638,-1.5652,-1.565,-1.5645,-1.5651,-1.562,-1.5615,-1.5596,-1.5646,-1.5595,-1.5608,-1.5597,-1.5597,-1.5599,-1.5657,-1.5659,-1.566,-1.5661,0,-1.5857,-1.5837,-1.5834,-1.5826,-1.5824,-1.5815,-1.5803,-1.5808,-1.5756,-1.5758,-1.576,-1.5757,-1.5751,-1.575,-1.574,-1.5724,-1.5685,-1.5678,-1.5687,-1.57,-1.5715,-1.5709,-1.555,-1.5675,-1.5673,-1.5672,-1.5672,-1.5671,-1.5948,-1.5961,-1.5938,-1.5938,-1.5924,-1.5915,-1.5923,-1.5897,-1.5898,-1.5889,-1.5862,-1.5868,-1.5849,-1.5831,-1.582,-1.5825,-1.58,-1.5813,-1.5816,-1.582,-1.5828,-1.5715,-1.5823,-1.5823,-1.5822,-1.5822,-1.5821,0,-1.6063,-1.6046,-1.6047,-1.6032,-1.6032,-1.5996,-1.5981,-1.5984,-1.5991,-1.5976,-1.5973,-1.5976,-1.5975,-1.5945,-1.5941,-1.5951,-1.5934,-1.5952,-1.595,-1.5948,-1.585,-1.5843,-1.5967,-1.5967,-1.5967,-1.5967,-1.5967,-1.5967,-1.6123,-1.6144,-1.6122,-1.6136,-1.6119,-1.6125,-1.612,-1.6112,-1.6099,-1.6105,-1.6105,-1.6085,-1.6064,-1.6059,-1.6057,-1.6048,-1.605,-1.6075,-1.606,-1.5969,-1.5955,-1.5941,-1.5934,-1.6075,-1.6075,-1.6157,-1.6158,-1.6158]},{"header":{"parameterUnit":"m.s-1","parameterCategory":1,"la1":30.2991,"la2":30.254,"lo1":-89.0895,"lo2":-89.0444,"dy":0.0017,"dx":0.0017,"nx":28,"ny":28,"refTime":"2023-04-25T21:00:00:Z","depth":0,"parameterNumber":3,"parameterNumberName":"V-component_of_WINDS"},"data":[0,0,0,0,0,0,0,0,0,0,0,0,0,0,0,0,0,0,0,0,0,0,0,0,0,0,0,0,0,0,0,0,0,0,0,0,0,0,0,0,0,0,0,0,0,0,0,0,0,0,0,0,0,0,0,0,0,0,1.7574,1.7574,0,1.7573,1.7573,1.7573,1.7606,1.7607,1.7608,1.7608,1.7602,1.7601,1.76,0,0,0,0,0,0,0,0,0,0,0,0,0,1.7601,1.7601,1.7574,1.7574,1.7574,1.7573,1.7573,1.7573,1.7606,1.7607,1.7608,1.7609,1.7602,1.7601,1.7599,0,0,0,0,0,0,0,0,0,0,0,0,0,1.7594,1.7601,1.7574,1.7591,1.7592,1.7573,1.7573,1.7573,1.7605,1.7607,1.7608,1.7609,1.7602,1.7601,1.7599,1.7563,0,0,1.7595,1.7594,0,0,0,0,0,0,0,0,1.7594,1.7593,1.7588,1.759,1.7591,1.7591,1.758,1.7569,1.7605,1.76,1.7608,1.761,1.7597,1.7596,1.7592,1.7563,1.7562,1.7594,1.7594,1.7593,1.7592,0,0,0,0,0,0,0,1.7595,1.7593,1.7574,1.7588,1.759,1.7597,1.7597,1.7578,1.7591,1.7601,1.7603,1.7603,1.7598,1.7594,1.7592,1.7562,1.7595,1.7593,1.7592,1.7592,1.7503,1.7501,0,0,0,0,0,0,1.7594,1.7593,1.7574,1.7574,1.7596,1.7595,1.7596,1.759,1.7591,1.7593,1.7602,1.7604,1.7596,1.7594,1.7592,1.7549,1.7593,1.7591,1.7591,1.7504,1.7502,1.7501,0,0,0,0,0,0,1.7594,1.7592,1.7574,1.7584,1.7582,1.7593,1.7586,1.7589,1.7585,1.7592,1.7594,1.7596,1.7597,1.7594,1.757,1.755,1.7591,1.7589,1.7506,1.7503,1.7501,1.7463,0,0,0,0,0,0,1.7595,1.7592,1.7579,1.7584,1.7582,1.7553,1.7585,1.7588,1.7583,1.7586,1.7587,1.7588,1.7597,1.7572,1.7569,1.7548,1.7588,1.7508,1.7505,1.7502,1.7467,1.746,1.7455,0,0,0,0,0,1.7595,1.7567,1.7578,1.7575,1.7566,1.7552,1.7551,1.7564,1.7581,1.7568,1.7572,1.7588,1.7553,1.757,1.7566,1.7544,1.7509,1.7505,1.7502,1.7469,1.7461,1.7455,0,0,0,0,0,0,1.7557,1.7568,1.758,1.7552,1.7551,1.7558,1.7541,1.7555,1.7548,1.7551,1.7566,1.7566,1.7539,1.754,1.7558,1.7509,1.7534,1.7529,1.751,1.7503,1.7497,1.7496,1.7587,0,0,0,0,0,1.7546,1.7535,1.7544,1.7519,1.7518,1.753,1.7524,1.7534,1.7533,1.7532,1.7535,1.7531,1.752,1.7511,1.7501,1.7468,1.7467,1.7451,1.7445,1.744,1.7436,1.7418,1.741,1.749,1.749,1.749,0,0,1.7521,1.7526,1.7518,1.7511,1.7512,1.7498,1.7529,1.7513,1.7503,1.7529,1.7507,1.7509,1.7506,1.7477,1.7464,1.7477,1.7414,1.7436,1.7432,1.743,1.7414,1.7406,1.7399,1.7488,1.7488,1.7488,0,0,1.747,1.7473,1.7452,1.7453,1.7454,1.7462,1.7457,1.7461,1.7464,1.7443,1.7462,1.7449,1.7429,1.7426,1.7422,1.7372,1.7385,1.7368,1.7336,1.7319,1.7312,1.7307,1.7288,1.7281,1.7364,1.7364,1.7364,0,1.7439,1.7422,1.7439,1.7423,1.7419,1.7445,1.7423,1.7422,1.7418,1.7414,1.7429,1.7405,1.7404,1.7375,1.7363,1.7359,1.7353,1.7367,1.7312,1.7307,1.7302,1.7284,1.7277,1.7362,1.7362,1.7362,1.7362,0,1.7383,1.7371,1.7354,1.7352,1.7346,1.7327,1.7341,1.7333,1.7345,1.7351,1.7328,1.733,1.732,1.7314,1.7324,1.7286,1.7294,1.731,1.7334,1.7292,1.7275,1.7268,1.7358,1.7359,1.736,1.736,0,0,1.7305,1.7315,1.7309,1.7308,1.7312,1.7302,1.7284,1.7276,1.7269,1.7266,1.725,1.7234,1.7249,1.7244,1.7255,1.7239,1.7198,1.7258,1.7258,1.7245,1.7155,1.7142,1.7133,1.7208,1.7207,1.7206,1.7155,0,1.7255,1.7226,1.7242,1.7211,1.7199,1.7223,1.7208,1.7207,1.7213,1.7203,1.7209,1.7196,1.7218,1.7216,1.7202,1.7206,1.718,1.721,1.7192,1.7191,1.719,1.7125,1.711,1.7062,1.7148,1.7147,1.7147,0,1.7192,1.7189,1.7156,1.7163,1.7158,1.7144,1.7138,1.7129,1.7129,1.7134,1.713,1.7144,1.7126,1.7152,1.7126,1.7146,1.714,1.7141,1.714,1.7137,1.7165,1.7119,1.7047,1.7039,1.7137,1.7137,1.7138,0,1.7137,1.7125,1.7104,1.7103,1.711,1.7099,1.7101,1.7103,1.7098,1.7092,1.7089,1.7081,1.7076,1.7069,1.7081,1.7099,1.7053,1.708,1.7055,1.7055,1.7043,1.7043,1.6967,1.7041,1.7041,1.7041,1.7042,0,1.7078,1.7057,1.7079,1.7066,1.7043,1.7062,1.7038,1.7042,1.7044,1.7031,1.7052,1.7039,1.7056,1.7044,1.7053,1.703,1.7027,1.703,1.7032,1.7027,1.7027,1.7022,1.7025,1.704,1.704,1.704,1.7041,0,1.7013,1.7027,1.7005,1.7015,1.7017,1.6999,1.7006,1.6994,1.7002,1.6985,1.6983,1.6994,1.6982,1.6994,1.6981,1.6987,1.6956,1.6963,1.6956,1.6958,1.6932,1.6933,1.6849,1.6838,1.692,1.692,1.6919,0,1.6973,1.6958,1.6966,1.696,1.6962,1.6951,1.6947,1.6964,1.6958,1.6958,1.6945,1.6935,1.6928,1.6906,1.6913,1.6904,1.691,1.6881,1.6909,1.6904,1.6908,1.6908,1.6906,1.6875,1.6874,1.6873,1.6873,0,1.6902,1.691,1.6903,1.6899,1.6893,1.689,1.6888,1.6882,1.69,1.6892,1.6881,1.6875,1.6864,1.6853,1.6846,1.6847,1.6862,1.6864,1.6858,1.6852,1.6848,1.6848,1.6939,1.6866,1.6866,1.6867,1.6867,1.6868,1.6847,1.6835,1.6839,1.683,1.6832,1.683,1.6819,1.6826,1.6818,1.6811,1.6822,1.6807,1.6808,1.6801,1.68,1.6788,1.68,1.679,1.6788,1.6785,1.6781,1.6851,1.6787,1.6787,1.6787,1.6787,1.6787,0,1.6776,1.678,1.6772,1.6771,1.6764,1.6782,1.6781,1.6774,1.6761,1.6761,1.6755,1.6741,1.6731,1.6738,1.6729,1.6718,1.6725,1.6715,1.6715,1.6715,1.6771,1.6777,1.671,1.671,1.671,1.671,1.671,1.671,1.6738,1.6717,1.6726,1.6706,1.6711,1.6698,1.6696,1.6694,1.6694,1.6679,1.6672,1.6677,1.6679,1.6671,1.6662,1.6664,1.6659,1.6647,1.6651,1.6703,1.6711,1.6718,1.6723,1.6646,1.6646,1.6595,1.6595,1.6594]}]]